Location: Kunchanapalle
(16.4623°N, 80.6176°E)
Time: 08:56:35
(UTC+00:00)

Iridium 2 - Pass Details

Date: 13 August 2020
Orbit: 502 x 516 km, 85.5° (Epoch: 18 September)

Event Time Altitude Azimuth Distance (km) Brightness Sun altitude
Rises 13:26:04 0° 4° (N) 2,594 7.4 -6.1°
Reaches altitude 10° 13:28:12 10° 9° (N) 1,707 6.5 -6.6°
Maximum altitude 13:31:52 57° 88° (E) 594 3.7 -7.4°
Drops below altitude 10° 13:35:31 10° 168° (SSE) 1,702 6.0 -8.2°
Sets 13:37:39 0° 172° (S) 2,585 7.0 -8.7°
